COSMOS 1275 DEB

Satellite information

Favourite Embed

Satellite Type and Status

DEBRISIN ORBIT

Key statistics

Satellite COSMOS 1275 DEB at a glance.

Uptime

16105

Days in orbit

Revolutions

≈ 13.8

Per day

Orbit

LEO

Low Earth Orbit

Inclination

83.0

Latest

Satellite identification and parameters

Extended collection of information and parameters for COSMOS 1275 DEB.

Object identification

Identified? True

Debris? True

Object name: COSMOS 1275 DEB

International designator: 1981-053C

Object number (NORAD): 12648

Object ID (CCSDS): 12648

Country: COMMONWEALTH OF INDEPENDENT STATES (CIS)

Current information (Y/N): Y

RCS size: MEDIUM

Orbital parameters

Period: 104.231 minutes

Inclination: 82.9697 deg

SMA: 7336.554 km

Apoapsis: 970.184 km

Periapsis: 946.655 km

RAAN: 104.0256 deg

Eccentricy: 0.0016035

Argument of periapsis: 64.6827 deg

Mean anomaly: 359.9929 deg

Mean motion: 13.81543434 rev/day

Mean motion (dot): 0.00000219 rev/day2

B* drag term: 0.00019049 1/REarth

Two-line elements (TLE)

Creation date: July 8, 2025, 2:27 a.m.

Reference frame: TEME

Reference center: EARTH

Epoch: July 7, 2025, 8:22 p.m. UTC

TLE line 0: 0 COSMOS 1275 DEB

TLE line 1: 1 12648U 81053C 25188.84923907 .00000219 00000-0 19049-3 0 9992

TLE line 2: 2 12648 82.9697 104.0256 0016035 64.6827 359.9929 13.81543434210128

Live tracking on map

Real-time ground track for satellite COSMOS 1275 DEB.

In-orbit conjunctions

A list of the most updated potential collisions computed for object COSMOS 1275 DEB.

Target Orbit TCA Probability of collision Miss distance Type
THOR ABLESTAR DEB LEO 2025-03-16 17:53:40 0.000126856 110.0 (m) DEBRIS
FENGYUN 1C DEB SSO 2024-10-10 08:44:36 0.000103916 152.0 (m) DEBRIS
COSMOS 1275 DEB LEO 2024-07-10 03:25:28 0.0002937859 255.0 (m) DEBRIS

Associated space launch

Navigation satellite providing location information for the Tsiklon-B navigation system

COSMOS 1275 DEB was lifted into orbit during the mission ‘Kosmos-3M | Parus 27’, on board a Kosmos-3M space rocket.

The launch took place on June 4, 1981, 3:41 p.m. from 132/2.

For more information about the launch, click the button.

Launch to space Kosmos-3M | Parus 27
Kosmos-3M | Parus 27

Agency: N/A

Status: Launch Successful

Launch date: June 4, 1981, 3:41 p.m. UTC

Rocket: Kosmos-3M

Launch pad: 132/2

Location: Plesetsk Cosmodrome, Russian Federation

...

Latest news about this satellite

There are no fresh news available about this satellite. Check back as we update our databases every day.


Newsletter sign-up

Weekly statistics, charts and insights to help you stay on top of the space industry.